When you browse on this site, cookies collect data to enhance your experience and personalize the content and advertising you see.
Visit our Privacy Policy to learn more. By continuing to use the site, you agree to this use of cookies and data.
  • Em Portugal
  • Lista de países
  • Para 7 dias
  • Temperatura da água
  • Mapas de satélite
  • Mapa do tempo
  • Widgets de tempo
  • user-avatar
    Iniciar Sessão

    Previsão horária em Gerata

    Hoje, 24 Julho, Quarta-feira

    Tempo Temperatura Precipitação Vento Pressão Humidade
    00:00 +29°C° 0 mm 6 m/s 675 mmHg 14%
    01:00 +28°C° 0 mm 5 m/s 674 mmHg 15%
    02:00 +27°C° 0 mm 4 m/s 674 mmHg 15%
    03:00 +26°C° 0 mm 3 m/s 673 mmHg 16%
    04:00 +25°C° 0 mm 3 m/s 673 mmHg 17%
    05:00 +27°C° 0 mm 3 m/s 674 mmHg 15%
    06:00 +29°C° 0 mm 3 m/s 675 mmHg 13%
    07:00 +33°C° 0 mm 3 m/s 675 mmHg 11%
    08:00 +35°C° 0 mm 5 m/s 675 mmHg 10%
    09:00 +38°C° 0 mm 6 m/s 675 mmHg 10%
    10:00 +40°C° 0 mm 7 m/s 675 mmHg 9%
    11:00 +42°C° 0 mm 9 m/s 675 mmHg 8%
    12:00 +43°C° 0 mm 12 m/s 675 mmHg 8%
    13:00 +45°C° 0 mm 14 m/s 675 mmHg 8%
    14:00 +45°C° 0 mm 14 m/s 675 mmHg 7%
    15:00 +45°C° 0 mm 15 m/s 674 mmHg 7%
    16:00 +45°C° 0 mm 15 m/s 674 mmHg 7%
    17:00 +42°C° 0 mm 13 m/s 674 mmHg 7%
    18:00 +41°C° 0 mm 12 m/s 674 mmHg 8%
    19:00 +38°C° 0 mm 11 m/s 674 mmHg 9%
    20:00 +37°C° 0 mm 10 m/s 674 mmHg 10%
    21:00 +36°C° 0 mm 10 m/s 674 mmHg 11%
    22:00 +34°C° 0 mm 10 m/s 674 mmHg 12%
    23:00 +33°C° 0 mm 10 m/s 674 mmHg 15%

    Amanhã, 25 Julho, Quinta-feira

    Tempo Temperatura Precipitação Vento Pressão Humidade
    00:00 +32°C° 0 mm 10 m/s 674 mmHg 18%
    01:00 +32°C° 0 mm 9 m/s 674 mmHg 21%
    02:00 +31°C° 0 mm 9 m/s 673 mmHg 22%
    03:00 +29°C° 0 mm 9 m/s 673 mmHg 24%
    04:00 +28°C° 0 mm 9 m/s 673 mmHg 26%
    05:00 +29°C° 0 mm 9 m/s 674 mmHg 24%
    06:00 +32°C° 0 mm 9 m/s 674 mmHg 22%
    07:00 +33°C° 0 mm 10 m/s 675 mmHg 20%
    08:00 +36°C° 0 mm 11 m/s 675 mmHg 18%
    09:00 +38°C° 0 mm 12 m/s 675 mmHg 16%
    10:00 +39°C° 0 mm 13 m/s 675 mmHg 14%
    11:00 +41°C° 0 mm 14 m/s 675 mmHg 13%
    12:00 +42°C° 0 mm 15 m/s 675 mmHg 12%
    13:00 +44°C° 0 mm 16 m/s 674 mmHg 12%
    14:00 +44°C° 0 mm 16 m/s 674 mmHg 11%
    15:00 +44°C° 0 mm 16 m/s 674 mmHg 11%
    16:00 +42°C° 0 mm 16 m/s 673 mmHg 11%
    17:00 +41°C° 0 mm 15 m/s 673 mmHg 13%
    18:00 +38°C° 0 mm 14 m/s 673 mmHg 14%
    19:00 +37°C° 0 mm 13 m/s 673 mmHg 16%
    20:00 +36°C° 0 mm 13 m/s 673 mmHg 16%
    21:00 +34°C° 0 mm 13 m/s 673 mmHg 17%
    22:00 +33°C° 0 mm 12 m/s 674 mmHg 17%
    23:00 +32°C° 0 mm 11 m/s 673 mmHg 18%

    Depois de amanhã, 26 Julho, Sexta-feira

    Tempo Temperatura Precipitação Vento Pressão Humidade
    00:00 +31°C° 0 mm 10 m/s 673 mmHg 19%
    01:00 +29°C° 0 mm 9 m/s 673 mmHg 20%
    02:00 +28°C° 0 mm 8 m/s 672 mmHg 21%
    03:00 +27°C° 0 mm 6 m/s 672 mmHg 22%
    04:00 +26°C° 0 mm 5 m/s 672 mmHg 23%
    05:00 +27°C° 0 mm 6 m/s 672 mmHg 21%
    06:00 +29°C° 0 mm 7 m/s 673 mmHg 18%
    07:00 +32°C° 0 mm 8 m/s 673 mmHg 16%
    08:00 +33°C° 0 mm 10 m/s 674 mmHg 14%
    09:00 +36°C° 0 mm 11 m/s 674 mmHg 13%
    10:00 +38°C° 0 mm 13 m/s 674 mmHg 11%
    11:00 +40°C° 0 mm 14 m/s 674 mmHg 11%
    12:00 +41°C° 0 mm 14 m/s 673 mmHg 10%
    13:00 +42°C° 0 mm 15 m/s 673 mmHg 9%
    14:00 +42°C° 0 mm 15 m/s 673 mmHg 9%
    15:00 +42°C° 0 mm 15 m/s 672 mmHg 8%
    16:00 +42°C° 0 mm 15 m/s 672 mmHg 8%
    17:00 +40°C° 0 mm 14 m/s 672 mmHg 9%
    18:00 +38°C° 0 mm 13 m/s 672 mmHg 10%
    19:00 +36°C° 0 mm 12 m/s 672 mmHg 10%
    20:00 +36°C° 0 mm 12 m/s 672 mmHg 12%
    21:00 +34°C° 0 mm 13 m/s 673 mmHg 14%
    22:00 +33°C° 0 mm 14 m/s 673 mmHg 15%
    23:00 +32°C° 0 mm 12 m/s 673 mmHg 16%

    27 Julho, Sábado

    Tempo Temperatura Precipitação Vento Pressão Humidade
    00:00 +31°C° 0 mm 11 m/s 673 mmHg 18%
    01:00 +29°C° 0 mm 9 m/s 672 mmHg 19%
    02:00 +28°C° 0 mm 9 m/s 672 mmHg 20%
    03:00 +27°C° 0 mm 8 m/s 672 mmHg 21%
    04:00 +26°C° 0 mm 7 m/s 672 mmHg 22%
    05:00 +28°C° 0 mm 8 m/s 672 mmHg 20%
    06:00 +29°C° 0 mm 8 m/s 673 mmHg 18%
    07:00 +32°C° 0 mm 8 m/s 673 mmHg 16%
    08:00 +34°C° 0 mm 10 m/s 674 mmHg 14%
    09:00 +37°C° 0 mm 12 m/s 674 mmHg 11%
    10:00 +41°C° 0 mm 14 m/s 674 mmHg 9%
    11:00 +41°C° 0 mm 15 m/s 674 mmHg 9%
    12:00 +42°C° 0 mm 16 m/s 674 mmHg 9%
    13:00 +44°C° 0 mm 17 m/s 674 mmHg 9%
    14:00 +44°C° 0 mm 17 m/s 673 mmHg 9%
    15:00 +44°C° 0 mm 17 m/s 673 mmHg 9%
    16:00 +44°C° 0 mm 16 m/s 673 mmHg 9%
    17:00 +41°C° 0 mm 15 m/s 673 mmHg 11%
    18:00 +39°C° 0 mm 13 m/s 673 mmHg 12%
    19:00 +37°C° 0 mm 12 m/s 673 mmHg 13%
    20:00 +37°C° 0 mm 12 m/s 673 mmHg 14%
    21:00 +36°C° 0 mm 12 m/s 673 mmHg 16%
    22:00 +34°C° 0 mm 12 m/s 674 mmHg 17%
    23:00 +33°C° 0 mm 12 m/s 673 mmHg 18%

    28 Julho, Domingo

    Tempo Temperatura Precipitação Vento Pressão Humidade
    00:00 +33°C° 0 mm 11 m/s 673 mmHg 19%
    01:00 +32°C° 0 mm 10 m/s 673 mmHg 19%
    02:00 +31°C° 0 mm 9 m/s 673 mmHg 20%
    03:00 +29°C° 0 mm 7 m/s 673 mmHg 21%
    04:00 +28°C° 0 mm 6 m/s 672 mmHg 22%
    05:00 +29°C° 0 mm 6 m/s 673 mmHg 20%
    06:00 +32°C° 0 mm 5 m/s 673 mmHg 18%
    07:00 +34°C° 0 mm 5 m/s 673 mmHg 16%
    08:00 +36°C° 0 mm 6 m/s 674 mmHg 14%
    09:00 +40°C° 0 mm 6 m/s 674 mmHg 11%
    10:00 +43°C° 0 mm 7 m/s 674 mmHg 9%
    11:00 +44°C° 0 mm 8 m/s 674 mmHg 8%
    12:00 +45°C° 0 mm 8 m/s 674 mmHg 8%
    13:00 +47°C° 0 mm 9 m/s 674 mmHg 7%
    14:00 +47°C° 0 mm 10 m/s 673 mmHg 7%
    15:00 +47°C° 0 mm 11 m/s 673 mmHg 8%
    16:00 +46°C° 0 mm 12 m/s 673 mmHg 8%
    17:00 +44°C° 0 mm 11 m/s 673 mmHg 9%
    18:00 +42°C° 0 mm 11 m/s 673 mmHg 11%
    19:00 +39°C° 0 mm 11 m/s 673 mmHg 12%
    20:00 +38°C° 0 mm 11 m/s 673 mmHg 13%
    21:00 +37°C° 0 mm 10 m/s 673 mmHg 14%
    22:00 +36°C° 0 mm 10 m/s 674 mmHg 15%
    23:00 +34°C° 0 mm 9 m/s 673 mmHg 16%

    29 Julho, Segunda-feira

    Tempo Temperatura Precipitação Vento Pressão Humidade
    00:00 +33°C° 0 mm 8 m/s 673 mmHg 17%
    01:00 +32°C° 0 mm 7 m/s 673 mmHg 18%
    02:00 +30°C° 0 mm 6 m/s 673 mmHg 19%
    03:00 +29°C° 0 mm 5 m/s 672 mmHg 20%
    04:00 +29°C° 0 mm 5 m/s 672 mmHg 21%
    05:00 +32°C° 0 mm 4 m/s 673 mmHg 19%
    06:00 +33°C° 0 mm 4 m/s 673 mmHg 17%
    07:00 +35°C° 0 mm 4 m/s 674 mmHg 15%
    08:00 +37°C° 0 mm 4 m/s 674 mmHg 13%
    09:00 +41°C° 0 mm 5 m/s 675 mmHg 11%
    10:00 +44°C° 0 mm 6 m/s 675 mmHg 10%
    11:00 +45°C° 0 mm 7 m/s 675 mmHg 9%
    12:00 +46°C° 0 mm 8 m/s 675 mmHg 8%
    13:00 +48°C° 0 mm 9 m/s 674 mmHg 8%
    14:00 +48°C° 0 mm 10 m/s 674 mmHg 8%
    15:00 +48°C° 0 mm 10 m/s 674 mmHg 7%
    16:00 +48°C° 0 mm 11 m/s 673 mmHg 7%
    17:00 +46°C° 0 mm 11 m/s 673 mmHg 8%
    18:00 +43°C° 0 mm 11 m/s 673 mmHg 10%
    19:00 +41°C° 0 mm 11 m/s 673 mmHg 11%
    20:00 +39°C° 0 mm 10 m/s 673 mmHg 12%
    21:00 +38°C° 0 mm 9 m/s 673 mmHg 13%
    22:00 +37°C° 0 mm 8 m/s 674 mmHg 14%
    23:00 +35°C° 0 mm 7 m/s 673 mmHg 16%
    Mostrar mais